Year,Month,Day,Hour,Minute,Value (Times are PST for temperature in C)
2006,08,07,00,00,14.00
2006,08,07,00,01,14.00
2006,08,07,00,02,13.90
2006,08,07,00,03,13.80
2006,08,07,00,04,13.70
2006,08,07,00,05,13.70
2006,08,07,00,06,13.70
2006,08,07,00,07,13.70
2006,08,07,00,08,13.70
2006,08,07,00,09,13.60
2006,08,07,00,10,13.60
2006,08,07,00,11,13.60
2006,08,07,00,12,13.60
2006,08,07,00,13,13.60
2006,08,07,00,14,13.60
2006,08,07,00,15,13.60
2006,08,07,00,16,13.60
2006,08,07,00,17,13.70
2006,08,07,00,18,13.70
2006,08,07,00,19,13.70
2006,08,07,00,20,13.70
2006,08,07,00,21,13.70
2006,08,07,00,22,13.70
2006,08,07,00,23,13.70
2006,08,07,00,24,13.70
2006,08,07,00,25,13.60
2006,08,07,00,26,13.60
2006,08,07,00,27,13.60
2006,08,07,00,28,13.50
2006,08,07,00,29,13.50
2006,08,07,00,30,13.40
2006,08,07,00,31,13.40
2006,08,07,00,32,13.30
2006,08,07,00,33,13.30
2006,08,07,00,34,13.30
2006,08,07,00,35,13.30
2006,08,07,00,36,13.20
2006,08,07,00,37,13.20
2006,08,07,00,38,13.20
2006,08,07,00,39,13.10
2006,08,07,00,40,13.10
2006,08,07,00,41,13.10
2006,08,07,00,42,13.10
2006,08,07,00,43,13.10
2006,08,07,00,44,13.00
2006,08,07,00,45,13.00
2006,08,07,00,46,13.00
2006,08,07,00,47,13.00
2006,08,07,00,48,13.00
2006,08,07,00,49,13.00
2006,08,07,00,50,13.00
2006,08,07,00,51,13.00
2006,08,07,00,52,12.90
2006,08,07,00,53,12.90
2006,08,07,00,54,12.90
2006,08,07,00,55,12.90
2006,08,07,00,56,12.90
2006,08,07,00,57,12.90
2006,08,07,00,58,12.90
2006,08,07,00,59,12.90
2006,08,07,01,00,12.90
2006,08,07,01,01,12.80
2006,08,07,01,02,12.80
2006,08,07,01,03,12.80
2006,08,07,01,04,12.80
2006,08,07,01,05,12.80
2006,08,07,01,06,12.80
2006,08,07,01,07,12.80
2006,08,07,01,08,12.80
2006,08,07,01,09,12.80
2006,08,07,01,10,12.80
2006,08,07,01,11,12.80
2006,08,07,01,12,12.80
2006,08,07,01,13,12.80
2006,08,07,01,14,12.70
2006,08,07,01,15,12.70
2006,08,07,01,16,12.70
2006,08,07,01,17,12.70
2006,08,07,01,18,12.70
2006,08,07,01,19,12.60
2006,08,07,01,20,12.60
2006,08,07,01,21,12.60
2006,08,07,01,22,12.60
2006,08,07,01,23,12.50
2006,08,07,01,24,12.50
2006,08,07,01,25,12.50
2006,08,07,01,26,12.50
2006,08,07,01,27,12.40
2006,08,07,01,28,12.40
2006,08,07,01,29,12.40
2006,08,07,01,30,12.30
2006,08,07,01,31,12.30
2006,08,07,01,32,12.30
2006,08,07,01,33,12.30
2006,08,07,01,34,12.30
2006,08,07,01,35,12.40
2006,08,07,01,36,12.40
2006,08,07,01,37,12.40
2006,08,07,01,38,12.40
2006,08,07,01,39,12.40
2006,08,07,01,40,12.40
2006,08,07,01,41,12.40
2006,08,07,01,42,12.40
2006,08,07,01,43,12.40
2006,08,07,01,44,12.30
2006,08,07,01,45,12.30
2006,08,07,01,46,12.40
2006,08,07,01,47,12.40
2006,08,07,01,48,12.40
2006,08,07,01,49,12.40
2006,08,07,01,50,12.50
2006,08,07,01,51,12.50
2006,08,07,01,52,12.50
2006,08,07,01,53,12.50
2006,08,07,01,54,12.50
2006,08,07,01,55,12.50
2006,08,07,01,56,12.50
2006,08,07,01,57,12.50
2006,08,07,01,58,12.50
2006,08,07,01,59,12.50
2006,08,07,02,00,12.50
2006,08,07,02,01,12.50
2006,08,07,02,02,12.50
2006,08,07,02,03,12.50
2006,08,07,02,04,12.50
2006,08,07,02,05,12.50
2006,08,07,02,06,12.50
2006,08,07,02,07,12.50
2006,08,07,02,08,12.50
2006,08,07,02,09,12.50
2006,08,07,02,10,12.50
2006,08,07,02,11,12.50
2006,08,07,02,12,12.50
2006,08,07,02,13,12.50
2006,08,07,02,14,12.50
2006,08,07,02,15,12.50
2006,08,07,02,16,12.50
2006,08,07,02,17,12.60
2006,08,07,02,18,12.60
2006,08,07,02,19,12.60
2006,08,07,02,20,12.60
2006,08,07,02,21,12.60
2006,08,07,02,22,12.60
2006,08,07,02,23,12.60
2006,08,07,02,24,12.60
2006,08,07,02,25,12.60
2006,08,07,02,26,12.60
2006,08,07,02,27,12.60
2006,08,07,02,28,12.60
2006,08,07,02,29,12.60
2006,08,07,02,30,12.60
2006,08,07,02,31,12.60
2006,08,07,02,32,12.50
2006,08,07,02,33,12.50
2006,08,07,02,34,12.40
2006,08,07,02,35,12.30
2006,08,07,02,36,12.30
2006,08,07,02,37,12.30
2006,08,07,02,38,12.30
2006,08,07,02,39,12.30
2006,08,07,02,40,12.30
2006,08,07,02,41,12.30
2006,08,07,02,42,12.20
2006,08,07,02,43,12.20
2006,08,07,02,44,12.20
2006,08,07,02,45,12.20
2006,08,07,02,46,12.20
2006,08,07,02,47,12.20
2006,08,07,02,48,12.20
2006,08,07,02,49,12.20
2006,08,07,02,50,12.20
2006,08,07,02,51,12.20
2006,08,07,02,52,12.20
2006,08,07,02,53,12.10
2006,08,07,02,54,12.10
2006,08,07,02,55,12.00
2006,08,07,02,56,12.00
2006,08,07,02,57,11.90
2006,08,07,02,58,11.80
2006,08,07,02,59,11.80
2006,08,07,03,00,11.80
2006,08,07,03,01,11.70
2006,08,07,03,02,11.70
2006,08,07,03,03,11.60
2006,08,07,03,04,11.60
2006,08,07,03,05,11.60
2006,08,07,03,06,11.50
2006,08,07,03,07,11.40
2006,08,07,03,08,11.40
2006,08,07,03,09,11.40
2006,08,07,03,10,11.40
2006,08,07,03,11,11.40
2006,08,07,03,12,11.40
2006,08,07,03,13,11.40
2006,08,07,03,14,11.40
2006,08,07,03,15,11.40
2006,08,07,03,16,11.40
2006,08,07,03,17,11.40
2006,08,07,03,18,11.40
2006,08,07,03,19,11.40
2006,08,07,03,20,11.30
2006,08,07,03,21,11.40
2006,08,07,03,22,11.40
2006,08,07,03,23,11.40
2006,08,07,03,24,11.40
2006,08,07,03,25,11.40
2006,08,07,03,26,11.40
2006,08,07,03,27,11.40
2006,08,07,03,28,11.30
2006,08,07,03,29,11.30
2006,08,07,03,30,11.30
2006,08,07,03,31,11.30
2006,08,07,03,32,11.30
2006,08,07,03,33,11.30
2006,08,07,03,34,11.30
2006,08,07,03,35,11.20
2006,08,07,03,36,11.20
2006,08,07,03,37,11.20
2006,08,07,03,38,11.20
2006,08,07,03,39,11.20
2006,08,07,03,40,11.20
2006,08,07,03,41,11.20
2006,08,07,03,42,11.20
2006,08,07,03,43,11.20
2006,08,07,03,44,11.20
2006,08,07,03,45,11.30
2006,08,07,03,46,11.30
2006,08,07,03,47,11.30
2006,08,07,03,48,11.30
2006,08,07,03,49,11.30
2006,08,07,03,50,11.40
2006,08,07,03,51,11.40
2006,08,07,03,52,11.40
2006,08,07,03,53,11.40
2006,08,07,03,54,11.40
2006,08,07,03,55,11.40
2006,08,07,03,56,11.40
2006,08,07,03,57,11.40
2006,08,07,03,58,11.40
2006,08,07,03,59,11.40
2006,08,07,04,00,11.40
2006,08,07,04,01,11.40
2006,08,07,04,02,11.40
2006,08,07,04,03,11.40
2006,08,07,04,04,11.40
2006,08,07,04,05,11.40
2006,08,07,04,06,11.40
2006,08,07,04,07,11.40
2006,08,07,04,08,11.40
2006,08,07,04,09,11.40
2006,08,07,04,10,11.60
2006,08,07,04,11,11.60
2006,08,07,04,12,11.50
2006,08,07,04,13,11.40
2006,08,07,04,14,11.40
2006,08,07,04,15,11.40
2006,08,07,04,16,11.30
2006,08,07,04,17,11.30
2006,08,07,04,18,11.30
2006,08,07,04,19,11.30
2006,08,07,04,20,11.30
2006,08,07,04,21,11.30
2006,08,07,04,22,11.40
2006,08,07,04,23,11.40
2006,08,07,04,24,11.50
2006,08,07,04,25,11.60
2006,08,07,04,26,11.60
2006,08,07,04,27,11.60
2006,08,07,04,28,11.60
2006,08,07,04,29,11.50
2006,08,07,04,30,11.40
2006,08,07,04,31,11.40
2006,08,07,04,32,11.40
2006,08,07,04,33,11.30
2006,08,07,04,34,11.30
2006,08,07,04,35,11.20
2006,08,07,04,36,11.20
2006,08,07,04,37,11.10
2006,08,07,04,38,11.10
2006,08,07,04,39,11.10
2006,08,07,04,40,11.10
2006,08,07,04,41,11.10
2006,08,07,04,42,11.10
2006,08,07,04,43,11.10
2006,08,07,04,44,11.10
2006,08,07,04,45,11.10
2006,08,07,04,46,11.10
2006,08,07,04,47,11.10
2006,08,07,04,48,11.10
2006,08,07,04,49,11.10
2006,08,07,04,50,11.10
2006,08,07,04,51,11.10
2006,08,07,04,52,11.00
2006,08,07,04,53,10.90
2006,08,07,04,54,10.90
2006,08,07,04,55,10.90
2006,08,07,04,56,10.90
2006,08,07,04,57,10.90
2006,08,07,04,58,10.90
2006,08,07,04,59,10.90
2006,08,07,05,00,10.90
2006,08,07,05,01,10.90
2006,08,07,05,02,10.80
2006,08,07,05,03,10.80
2006,08,07,05,04,10.80
2006,08,07,05,05,10.80
2006,08,07,05,06,10.80
2006,08,07,05,07,10.80
2006,08,07,05,08,10.80
2006,08,07,05,09,10.80
2006,08,07,05,10,10.80
2006,08,07,05,11,10.80
2006,08,07,05,12,10.80
2006,08,07,05,13,10.80
2006,08,07,05,14,10.70
2006,08,07,05,15,10.70
2006,08,07,05,16,10.70
2006,08,07,05,17,10.70
2006,08,07,05,18,10.70
2006,08,07,05,19,10.70
2006,08,07,05,20,10.70
2006,08,07,05,21,10.70
2006,08,07,05,22,10.70
2006,08,07,05,23,10.70
2006,08,07,05,24,10.70
2006,08,07,05,25,10.70
2006,08,07,05,26,10.70
2006,08,07,05,27,10.70
2006,08,07,05,28,10.70
2006,08,07,05,29,10.70
2006,08,07,05,30,10.70
2006,08,07,05,31,10.70
2006,08,07,05,32,10.70
2006,08,07,05,33,10.70
2006,08,07,05,34,10.70
2006,08,07,05,35,10.70
2006,08,07,05,36,10.70
2006,08,07,05,37,10.70
2006,08,07,05,38,10.70
2006,08,07,05,39,10.70
2006,08,07,05,40,10.70
2006,08,07,05,41,10.70
2006,08,07,05,42,10.70
2006,08,07,05,43,10.70
2006,08,07,05,44,10.70
2006,08,07,05,45,10.60
2006,08,07,05,46,10.60
2006,08,07,05,47,10.60
2006,08,07,05,48,10.60
2006,08,07,05,49,10.60
2006,08,07,05,50,10.60
2006,08,07,05,51,10.40
2006,08,07,05,52,10.40
2006,08,07,05,53,10.40
2006,08,07,05,54,10.40
2006,08,07,05,55,10.30
2006,08,07,05,56,10.30
2006,08,07,05,57,10.30
2006,08,07,05,58,10.30
2006,08,07,05,59,10.20
2006,08,07,06,00,10.20
2006,08,07,06,01,10.20
2006,08,07,06,02,10.20
2006,08,07,06,03,10.20
2006,08,07,06,04,10.20
2006,08,07,06,05,10.20
2006,08,07,06,06,10.20
2006,08,07,06,07,10.20
2006,08,07,06,08,10.20
2006,08,07,06,09,10.30
2006,08,07,06,10,10.30
2006,08,07,06,11,10.30
2006,08,07,06,12,10.30
2006,08,07,06,13,10.30
2006,08,07,06,14,10.30
2006,08,07,06,15,10.30
2006,08,07,06,16,10.30
2006,08,07,06,17,10.30
2006,08,07,06,18,10.30
2006,08,07,06,19,10.30
2006,08,07,06,20,10.30
2006,08,07,06,21,10.30
2006,08,07,06,22,10.30
2006,08,07,06,23,10.30
2006,08,07,06,24,10.30
2006,08,07,06,25,10.30
2006,08,07,06,26,10.30
2006,08,07,06,27,10.30
2006,08,07,06,28,10.30
2006,08,07,06,29,10.40
2006,08,07,06,30,10.40
2006,08,07,06,31,10.40
2006,08,07,06,32,10.40
2006,08,07,06,33,10.40
2006,08,07,06,34,10.40
2006,08,07,06,35,10.40
2006,08,07,06,36,10.40
2006,08,07,06,37,10.40
2006,08,07,06,38,10.40
2006,08,07,06,39,10.40
2006,08,07,06,40,10.40
2006,08,07,06,41,10.60
2006,08,07,06,42,10.60
2006,08,07,06,43,10.60
2006,08,07,06,44,10.60
2006,08,07,06,45,10.60
2006,08,07,06,46,10.60
2006,08,07,06,47,10.70
2006,08,07,06,48,10.70
2006,08,07,06,49,10.80
2006,08,07,06,50,10.80
2006,08,07,06,51,10.80
2006,08,07,06,52,10.90
2006,08,07,06,53,10.90
2006,08,07,06,54,10.90
2006,08,07,06,55,10.90
2006,08,07,06,56,11.00
2006,08,07,06,57,11.10
2006,08,07,06,58,11.10
2006,08,07,06,59,11.20
2006,08,07,07,00,11.30
2006,08,07,07,01,11.40
2006,08,07,07,02,11.40
2006,08,07,07,03,11.40
2006,08,07,07,04,11.40
2006,08,07,07,05,11.50
2006,08,07,07,06,11.60
2006,08,07,07,07,11.60
2006,08,07,07,08,11.70
2006,08,07,07,09,11.70
2006,08,07,07,10,11.80
2006,08,07,07,11,11.80
2006,08,07,07,12,11.90
2006,08,07,07,13,12.00
2006,08,07,07,14,12.00
2006,08,07,07,15,12.10
2006,08,07,07,16,12.20
2006,08,07,07,17,12.20
2006,08,07,07,18,12.30
2006,08,07,07,19,12.40
2006,08,07,07,20,12.50
2006,08,07,07,21,12.50
2006,08,07,07,22,12.60
2006,08,07,07,23,12.70
2006,08,07,07,24,12.80
2006,08,07,07,25,12.80
2006,08,07,07,26,12.90
2006,08,07,07,27,12.90
2006,08,07,07,28,13.00
2006,08,07,07,29,13.10
2006,08,07,07,30,13.10
2006,08,07,07,31,13.20
2006,08,07,07,32,13.20
2006,08,07,07,33,13.30
2006,08,07,07,34,13.30
2006,08,07,07,35,13.40
2006,08,07,07,36,13.50
2006,08,07,07,37,13.60
2006,08,07,07,38,13.70
2006,08,07,07,39,13.70
2006,08,07,07,40,13.80
2006,08,07,07,41,13.90
2006,08,07,07,42,14.00
2006,08,07,07,43,14.00
2006,08,07,07,44,14.20
2006,08,07,07,45,14.20
2006,08,07,07,46,14.40
2006,08,07,07,47,14.50
2006,08,07,07,48,14.60
2006,08,07,07,49,14.70
2006,08,07,07,50,14.80
2006,08,07,07,51,14.80
2006,08,07,07,52,14.80
2006,08,07,07,53,14.80
2006,08,07,07,54,14.90
2006,08,07,07,55,14.90
2006,08,07,07,56,14.90
2006,08,07,07,57,14.90
2006,08,07,07,58,15.00
2006,08,07,07,59,15.00
2006,08,07,08,00,15.00
2006,08,07,08,01,15.10
2006,08,07,08,02,15.10
2006,08,07,08,03,15.20
2006,08,07,08,04,15.20
2006,08,07,08,05,15.20
2006,08,07,08,06,15.30
2006,08,07,08,07,15.30
2006,08,07,08,08,15.30
2006,08,07,08,09,15.40
2006,08,07,08,10,15.50
2006,08,07,08,11,15.60
2006,08,07,08,12,15.60
2006,08,07,08,13,15.70
2006,08,07,08,14,15.80
2006,08,07,08,15,15.80
2006,08,07,08,16,15.90
2006,08,07,08,17,15.90
2006,08,07,08,18,16.00
2006,08,07,08,19,16.10
2006,08,07,08,20,16.20
2006,08,07,08,21,16.20
2006,08,07,08,22,16.30
2006,08,07,08,23,16.30
2006,08,07,08,24,16.40
2006,08,07,08,25,16.40
2006,08,07,08,26,16.40
2006,08,07,08,27,16.50
2006,08,07,08,28,16.60
2006,08,07,08,29,16.60
2006,08,07,08,30,16.70
2006,08,07,08,31,16.70
2006,08,07,08,32,16.70
2006,08,07,08,33,16.70
2006,08,07,08,34,16.70
2006,08,07,08,35,16.80
2006,08,07,08,36,16.80
2006,08,07,08,37,16.80
2006,08,07,08,38,16.90
2006,08,07,08,39,16.90
2006,08,07,08,40,17.00
2006,08,07,08,41,17.00
2006,08,07,08,42,17.10
2006,08,07,08,43,17.10
2006,08,07,08,44,17.10
2006,08,07,08,45,17.10
2006,08,07,08,46,17.10
2006,08,07,08,47,17.10
2006,08,07,08,48,17.10
2006,08,07,08,49,17.10
2006,08,07,08,50,17.00
2006,08,07,08,51,17.00
2006,08,07,08,52,17.00
2006,08,07,08,53,17.00
2006,08,07,08,54,17.00
2006,08,07,08,55,17.00
2006,08,07,08,56,17.00
2006,08,07,08,57,17.00
2006,08,07,08,58,17.10
2006,08,07,08,59,17.10
2006,08,07,09,00,17.30
2006,08,07,09,01,17.30
2006,08,07,09,02,17.30
2006,08,07,09,03,17.30
2006,08,07,09,04,17.30
2006,08,07,09,05,17.40
2006,08,07,09,06,17.50
2006,08,07,09,07,17.60
2006,08,07,09,08,17.70
2006,08,07,09,09,17.80
2006,08,07,09,10,17.80
2006,08,07,09,11,17.90
2006,08,07,09,12,18.00
2006,08,07,09,13,18.10
2006,08,07,09,14,18.20
2006,08,07,09,15,18.20
2006,08,07,09,16,18.30
2006,08,07,09,17,18.40
2006,08,07,09,18,18.40
2006,08,07,09,19,18.50
2006,08,07,09,20,18.60
2006,08,07,09,21,18.70
2006,08,07,09,22,18.70
2006,08,07,09,23,18.80
2006,08,07,09,24,18.80
2006,08,07,09,25,18.90
2006,08,07,09,26,18.90
2006,08,07,09,27,18.90
2006,08,07,09,28,18.90
2006,08,07,09,29,18.70
2006,08,07,09,30,18.60
2006,08,07,09,31,18.60
2006,08,07,09,32,18.60
2006,08,07,09,33,18.50
2006,08,07,09,34,18.40
2006,08,07,09,35,18.20
2006,08,07,09,36,18.00
2006,08,07,09,37,17.80
2006,08,07,09,38,17.60
2006,08,07,09,39,17.50
2006,08,07,09,40,17.30
2006,08,07,09,41,17.30
2006,08,07,09,42,17.30
2006,08,07,09,43,17.30
2006,08,07,09,44,17.20
2006,08,07,09,45,17.10
2006,08,07,09,46,17.10
2006,08,07,09,47,17.10
2006,08,07,09,48,17.10
2006,08,07,09,49,17.20
2006,08,07,09,50,17.20
2006,08,07,09,51,17.20
2006,08,07,09,52,17.30
2006,08,07,09,53,17.20
2006,08,07,09,54,17.30
2006,08,07,09,55,17.30
2006,08,07,09,56,17.20
2006,08,07,09,57,17.20
2006,08,07,09,58,17.30
2006,08,07,09,59,17.30
2006,08,07,10,00,17.30
2006,08,07,10,01,17.40
2006,08,07,10,02,17.40
2006,08,07,10,03,17.40
2006,08,07,10,04,17.40
2006,08,07,10,05,17.30
2006,08,07,10,06,17.40
2006,08,07,10,07,17.40
2006,08,07,10,08,17.40
2006,08,07,10,09,17.40
2006,08,07,10,10,17.40
2006,08,07,10,11,17.50
2006,08,07,10,12,17.50
2006,08,07,10,13,17.40
2006,08,07,10,14,17.30
2006,08,07,10,15,17.20
2006,08,07,10,16,17.20
2006,08,07,10,17,17.20
2006,08,07,10,18,17.20
2006,08,07,10,19,17.20
2006,08,07,10,20,17.20
2006,08,07,10,21,17.20
2006,08,07,10,22,17.20
2006,08,07,10,23,17.20
2006,08,07,10,24,17.20
2006,08,07,10,25,17.30
2006,08,07,10,26,17.30
2006,08,07,10,27,17.30
2006,08,07,10,28,17.30
2006,08,07,10,29,17.30
2006,08,07,10,30,17.20
2006,08,07,10,31,17.30
2006,08,07,10,32,17.30
2006,08,07,10,33,17.40
2006,08,07,10,34,17.50
2006,08,07,10,35,17.60
2006,08,07,10,36,17.50
2006,08,07,10,37,17.50
2006,08,07,10,38,17.50
2006,08,07,10,39,17.40
2006,08,07,10,40,17.40
2006,08,07,10,41,17.50
2006,08,07,10,42,17.50
2006,08,07,10,43,17.60
2006,08,07,10,44,17.60
2006,08,07,10,45,17.70
2006,08,07,10,46,17.70
2006,08,07,10,47,17.80
2006,08,07,10,48,17.80
2006,08,07,10,49,17.80
2006,08,07,10,50,17.80
2006,08,07,10,51,17.80
2006,08,07,10,52,17.80
2006,08,07,10,53,17.80
2006,08,07,10,54,17.90
2006,08,07,10,55,17.90
2006,08,07,10,56,17.90
2006,08,07,10,57,17.90
2006,08,07,10,58,17.90
2006,08,07,10,59,17.90
2006,08,07,11,00,17.80
2006,08,07,11,01,17.80
2006,08,07,11,02,17.80
2006,08,07,11,03,17.80
2006,08,07,11,04,17.80
2006,08,07,11,05,17.80
2006,08,07,11,06,17.80
2006,08,07,11,07,17.80
2006,08,07,11,08,17.80
2006,08,07,11,09,17.90
2006,08,07,11,10,17.90
2006,08,07,11,11,18.10
2006,08,07,11,12,18.20
2006,08,07,11,13,18.40
2006,08,07,11,14,18.50
2006,08,07,11,15,18.60
2006,08,07,11,16,18.70
2006,08,07,11,17,18.90
2006,08,07,11,18,18.90
2006,08,07,11,19,18.90
2006,08,07,11,20,18.80
2006,08,07,11,21,18.80
2006,08,07,11,22,18.80
2006,08,07,11,23,18.80
2006,08,07,11,24,18.90
2006,08,07,11,25,19.00
2006,08,07,11,26,19.10
2006,08,07,11,27,19.20
2006,08,07,11,28,19.30
2006,08,07,11,29,19.40
2006,08,07,11,30,19.50
2006,08,07,11,31,19.60
2006,08,07,11,32,19.70
2006,08,07,11,33,19.80
2006,08,07,11,34,19.90
2006,08,07,11,35,19.90
2006,08,07,11,36,20.00
2006,08,07,11,37,20.10
2006,08,07,11,38,20.10
2006,08,07,11,39,20.20
2006,08,07,11,40,20.20
2006,08,07,11,41,20.20
2006,08,07,11,42,20.20
2006,08,07,11,43,20.10
2006,08,07,11,44,20.10
2006,08,07,11,45,20.00
2006,08,07,11,46,19.90
2006,08,07,11,47,19.90
2006,08,07,11,48,19.90
2006,08,07,11,49,19.90
2006,08,07,11,50,19.90
2006,08,07,11,51,19.90
2006,08,07,11,52,19.90
2006,08,07,11,53,19.90
2006,08,07,11,54,19.90
2006,08,07,11,55,20.00
2006,08,07,11,56,20.10
2006,08,07,11,57,20.00
2006,08,07,11,58,19.90
2006,08,07,11,59,19.90
2006,08,07,12,00,19.90
2006,08,07,12,01,19.90
2006,08,07,12,02,19.90
2006,08,07,12,03,19.90
2006,08,07,12,04,19.90
2006,08,07,12,05,19.90
2006,08,07,12,06,19.90
2006,08,07,12,07,20.10
2006,08,07,12,08,20.10
2006,08,07,12,09,20.00
2006,08,07,12,10,19.90
2006,08,07,12,11,19.90
2006,08,07,12,12,19.90
2006,08,07,12,13,19.90
2006,08,07,12,14,20.00
2006,08,07,12,15,20.00
2006,08,07,12,16,19.90
2006,08,07,12,17,19.90
2006,08,07,12,18,19.90
2006,08,07,12,19,19.80
2006,08,07,12,20,19.70
2006,08,07,12,21,19.70
2006,08,07,12,22,19.70
2006,08,07,12,23,19.90
2006,08,07,12,24,20.00
2006,08,07,12,25,19.90
2006,08,07,12,26,19.90
2006,08,07,12,27,19.90
2006,08,07,12,28,19.80
2006,08,07,12,29,19.90
2006,08,07,12,30,19.90
2006,08,07,12,31,19.90
2006,08,07,12,32,19.90
2006,08,07,12,33,20.00
2006,08,07,12,34,20.10
2006,08,07,12,35,20.20
2006,08,07,12,36,20.30
2006,08,07,12,37,20.30
2006,08,07,12,38,20.30
2006,08,07,12,39,20.30
2006,08,07,12,40,20.30
2006,08,07,12,41,20.40
2006,08,07,12,42,20.50
2006,08,07,12,43,20.50
2006,08,07,12,44,20.60
2006,08,07,12,45,20.70
2006,08,07,12,46,20.70
2006,08,07,12,47,20.60
2006,08,07,12,48,20.60
2006,08,07,12,49,20.60
2006,08,07,12,50,20.70
2006,08,07,12,51,20.80
2006,08,07,12,52,20.80
2006,08,07,12,53,20.90
2006,08,07,12,54,20.90
2006,08,07,12,55,21.00
2006,08,07,12,56,21.00
2006,08,07,12,57,21.00
2006,08,07,12,58,20.90
2006,08,07,12,59,20.80
2006,08,07,13,00,20.70
2006,08,07,13,01,20.70
2006,08,07,13,02,20.80
2006,08,07,13,03,20.80
2006,08,07,13,04,20.90
2006,08,07,13,05,21.00
2006,08,07,13,06,21.00
2006,08,07,13,07,21.00
2006,08,07,13,08,21.00
2006,08,07,13,09,20.90
2006,08,07,13,10,20.90
2006,08,07,13,11,20.90
2006,08,07,13,12,20.90
2006,08,07,13,13,20.90
2006,08,07,13,14,20.90
2006,08,07,13,15,21.00
2006,08,07,13,16,21.20
2006,08,07,13,17,21.30
2006,08,07,13,18,21.40
2006,08,07,13,19,21.50
2006,08,07,13,20,21.60
2006,08,07,13,21,21.60
2006,08,07,13,22,21.70
2006,08,07,13,23,21.80
2006,08,07,13,24,22.00
2006,08,07,13,25,22.20
2006,08,07,13,26,22.30
2006,08,07,13,27,22.50
2006,08,07,13,28,22.60
2006,08,07,13,29,22.70
2006,08,07,13,30,22.90
2006,08,07,13,31,23.00
2006,08,07,13,32,23.20
2006,08,07,13,33,23.60
2006,08,07,13,34,23.80
2006,08,07,13,35,23.90
2006,08,07,13,36,24.10
2006,08,07,13,37,24.20
2006,08,07,13,38,24.30
2006,08,07,13,39,24.20
2006,08,07,13,40,24.20
2006,08,07,13,41,24.20
2006,08,07,13,42,24.20
2006,08,07,13,43,24.30
2006,08,07,13,44,24.30
2006,08,07,13,45,24.30
2006,08,07,13,46,24.30
2006,08,07,13,47,24.30
2006,08,07,13,48,24.40
2006,08,07,13,49,24.40
2006,08,07,13,50,24.50
2006,08,07,13,51,24.60
2006,08,07,13,52,24.70
2006,08,07,13,53,24.70
2006,08,07,13,54,24.90
2006,08,07,13,55,24.90
2006,08,07,13,56,24.90
2006,08,07,13,57,25.00
2006,08,07,13,58,25.10
2006,08,07,13,59,25.20
2006,08,07,14,00,25.20
2006,08,07,14,01,25.20
2006,08,07,14,02,25.20
2006,08,07,14,03,25.20
2006,08,07,14,04,25.20
2006,08,07,14,05,25.20
2006,08,07,14,06,25.30
2006,08,07,14,07,25.30
2006,08,07,14,08,25.30
2006,08,07,14,09,25.30
2006,08,07,14,10,25.30
2006,08,07,14,11,25.30
2006,08,07,14,12,25.40
2006,08,07,14,13,25.50
2006,08,07,14,14,25.50
2006,08,07,14,15,25.50
2006,08,07,14,16,25.50
2006,08,07,14,17,25.60
2006,08,07,14,18,25.70
2006,08,07,14,19,25.60
2006,08,07,14,20,25.50
2006,08,07,14,21,25.50
2006,08,07,14,22,25.60
2006,08,07,14,23,25.60
2006,08,07,14,24,25.70
2006,08,07,14,25,25.70
2006,08,07,14,26,25.70
2006,08,07,14,27,25.70
2006,08,07,14,28,25.70
2006,08,07,14,29,25.70
2006,08,07,14,30,25.70
2006,08,07,14,31,25.70
2006,08,07,14,32,25.60
2006,08,07,14,33,25.60
2006,08,07,14,34,25.60
2006,08,07,14,35,25.70
2006,08,07,14,36,25.70
2006,08,07,14,37,25.80
2006,08,07,14,38,25.90
2006,08,07,14,39,26.00
2006,08,07,14,40,26.00
2006,08,07,14,41,26.10
2006,08,07,14,42,26.10
2006,08,07,14,43,25.90
2006,08,07,14,44,25.80
2006,08,07,14,45,25.70
2006,08,07,14,46,25.70
2006,08,07,14,47,25.70
2006,08,07,14,48,25.70
2006,08,07,14,49,25.60
2006,08,07,14,50,25.70
2006,08,07,14,51,25.70
2006,08,07,14,52,25.80
2006,08,07,14,53,25.90
2006,08,07,14,54,26.00
2006,08,07,14,55,26.00
2006,08,07,14,56,26.00
2006,08,07,14,57,26.00
2006,08,07,14,58,25.80
2006,08,07,14,59,25.70
2006,08,07,15,00,25.70
2006,08,07,15,01,25.70
2006,08,07,15,02,25.60
2006,08,07,15,03,25.70
2006,08,07,15,04,25.80
2006,08,07,15,05,25.90
2006,08,07,15,06,26.00
2006,08,07,15,07,26.00
2006,08,07,15,08,26.00
2006,08,07,15,09,25.90
2006,08,07,15,10,25.80
2006,08,07,15,11,25.90
2006,08,07,15,12,26.00
2006,08,07,15,13,26.00
2006,08,07,15,14,26.10
2006,08,07,15,15,26.20
2006,08,07,15,16,26.30
2006,08,07,15,17,26.30
2006,08,07,15,18,26.30
2006,08,07,15,19,26.30
2006,08,07,15,20,26.30
2006,08,07,15,21,26.20
2006,08,07,15,22,26.30
2006,08,07,15,23,26.20
2006,08,07,15,24,26.30
2006,08,07,15,25,26.20
2006,08,07,15,26,26.20
2006,08,07,15,27,26.10
2006,08,07,15,28,26.10
2006,08,07,15,29,26.00
2006,08,07,15,30,25.90
2006,08,07,15,31,25.90
2006,08,07,15,32,25.90
2006,08,07,15,33,25.90
2006,08,07,15,34,26.00
2006,08,07,15,35,26.10
2006,08,07,15,36,26.20
2006,08,07,15,37,26.40
2006,08,07,15,38,26.40
2006,08,07,15,39,26.60
2006,08,07,15,40,26.60
2006,08,07,15,41,26.60
2006,08,07,15,42,26.50
2006,08,07,15,43,26.50
2006,08,07,15,44,26.60
2006,08,07,15,45,26.40
2006,08,07,15,46,26.30
2006,08,07,15,47,26.20
2006,08,07,15,48,26.20
2006,08,07,15,49,26.30
2006,08,07,15,50,26.40
2006,08,07,15,51,26.40
2006,08,07,15,52,26.40
2006,08,07,15,53,26.50
2006,08,07,15,54,26.60
2006,08,07,15,55,26.60
2006,08,07,15,56,26.60
2006,08,07,15,57,26.60
2006,08,07,15,58,26.60
2006,08,07,15,59,26.60
2006,08,07,16,00,26.60
2006,08,07,16,01,26.70
2006,08,07,16,02,26.80
2006,08,07,16,03,26.90
2006,08,07,16,04,27.00
2006,08,07,16,05,27.10
2006,08,07,16,06,27.10
2006,08,07,16,07,27.00
2006,08,07,16,08,26.90
2006,08,07,16,09,26.80
2006,08,07,16,10,26.80
2006,08,07,16,11,26.70
2006,08,07,16,12,26.60
2006,08,07,16,13,26.60
2006,08,07,16,14,26.50
2006,08,07,16,15,26.40
2006,08,07,16,16,26.30
2006,08,07,16,17,26.40
2006,08,07,16,18,26.40
2006,08,07,16,19,26.40
2006,08,07,16,20,26.40
2006,08,07,16,21,26.50
2006,08,07,16,22,26.60
2006,08,07,16,23,26.60
2006,08,07,16,24,26.60
2006,08,07,16,25,26.60
2006,08,07,16,26,26.70
2006,08,07,16,27,26.80
2006,08,07,16,28,27.00
2006,08,07,16,29,27.10
2006,08,07,16,30,27.20
2006,08,07,16,31,27.20
2006,08,07,16,32,27.20
2006,08,07,16,33,27.30
2006,08,07,16,34,27.30
2006,08,07,16,35,27.30
2006,08,07,16,36,27.40
2006,08,07,16,37,27.30
2006,08,07,16,38,27.30
2006,08,07,16,39,27.30
2006,08,07,16,40,27.30
2006,08,07,16,41,27.30
2006,08,07,16,42,27.30
2006,08,07,16,43,27.30
2006,08,07,16,44,27.30
2006,08,07,16,45,27.30
2006,08,07,16,46,27.30
2006,08,07,16,47,27.30
2006,08,07,16,48,27.40
2006,08,07,16,49,27.50
2006,08,07,16,50,27.50
2006,08,07,16,51,27.40
2006,08,07,16,52,27.20
2006,08,07,16,53,27.10
2006,08,07,16,54,27.10
2006,08,07,16,55,27.20
2006,08,07,16,56,27.30
2006,08,07,16,57,27.30
2006,08,07,16,58,27.30
2006,08,07,16,59,27.30
2006,08,07,17,00,27.10
2006,08,07,17,01,26.80
2006,08,07,17,02,26.60
2006,08,07,17,03,26.60
2006,08,07,17,04,26.60
2006,08,07,17,05,26.60
2006,08,07,17,06,26.60
2006,08,07,17,07,26.50
2006,08,07,17,08,26.40
2006,08,07,17,09,26.40
2006,08,07,17,10,26.30
2006,08,07,17,11,26.20
2006,08,07,17,12,26.10
2006,08,07,17,13,26.00
2006,08,07,17,14,25.90
2006,08,07,17,15,25.80
2006,08,07,17,16,25.70
2006,08,07,17,17,25.70
2006,08,07,17,18,25.70
2006,08,07,17,19,25.70